Coffeyville, KS

7:49 PM CDT on May 26, 2017 (GMT -0500)
Coffeyville Municipal

Weather History for KCFV - November, 2011

Change the Weather History Date:

Tuesday, November 29, 2011

  Actual Average Record
Temperature  
Mean Temperature 42 °F -  
Max Temperature 52 °F 52 °F 73 °F (1998)
Min Temperature 32 °F 32 °F 23 °F (2003)
Degree Days  
Heating Degree Days 23    
Moisture  
Dew Point 25 °F    
Average Humidity 57    
Maximum Humidity 75    
Minimum Humidity 33    
Precipitation  
Precipitation 0.00 in - - ()
Sea Level Pressure  
Sea Level Pressure 30.23 in    
Wind  
Wind Speed 11 mph (NNW)    
Max Wind Speed 23 mph    
Max Gust Speed 29 mph    
Visibility 10 miles    
Events      
Averages and records for this station are not official NWS values.
T = Trace of Precipitation, MM = Missing Value Source: NWS Daily Summary

Daily Weather History Graph

Daily Weather History Graph

Search for Another Location

Airport or City:

Trip Planner

Search our weather history database for the weather conditions in past years. The results will help you decide how hot, cold, wet, or windy it might be!

Date:

Astronomy

Nov. 29, 2011 Rise Set
Actual Time 7:15 AM CST 5:05 PM CST
Civil Twilight 6:46 AM CST 5:34 PM CST
Nautical Twilight 6:14 AM CST 6:06 PM CST
Astronomical Twilight 5:43 AM CST 6:37 PM CST
Moon 11:04 AM CST (11/29) 9:57 PM CST (11/29)
Length of Visible Light 10h 47m
Length of Day
9h 50m
Waxing Crescent, 24% of the Moon is Illuminated
Nov 29
Waxing Crescent
Dec 2
First Quarter
Dec 10
Full
Dec 17
Last Quarter
Dec 24
New

Hourly Weather History & Observations

Time (CST) Temp. Windchill Dew Point Humidity Pressure Visibility Wind Dir Wind Speed Gust Speed Precip Events Conditions
1:52 AM 33.1 °F 24.9 °F 26.1 °F 75% 30.10 in 10.0 mi NW 10.4 mph - N/A   Clear
2:52 AM 33.1 °F 26.1 °F 25.0 °F 72% 30.11 in 10.0 mi NW 8.1 mph - N/A   Clear
3:52 AM 32.0 °F 26.4 °F 24.1 °F 73% 30.12 in 10.0 mi NNW 5.8 mph - N/A   Clear
4:52 AM 34.0 °F 25.0 °F 24.1 °F 67% 30.14 in 10.0 mi NNW 12.7 mph - N/A   Clear
5:52 AM 35.1 °F 25.9 °F 25.0 °F 67% 30.17 in 10.0 mi NNW 13.8 mph - N/A   Clear
6:52 AM 35.1 °F 26.4 °F 26.1 °F 70% 30.20 in 10.0 mi North 12.7 mph - N/A   Clear
7:52 AM 36.0 °F 29.6 °F 28.0 °F 73% 30.22 in 10.0 mi North 8.1 mph - N/A   Clear
8:52 AM 39.0 °F 32.3 °F 28.9 °F 67% 30.24 in 10.0 mi NNW 10.4 mph - N/A   Clear
9:52 AM 43.0 °F 33.8 °F 32.0 °F 65% 30.26 in 10.0 mi North 23.0 mph 28.8 mph N/A   Clear
10:52 AM 46.9 °F - 33.1 °F 59% 30.26 in 10.0 mi North 18.4 mph 25.3 mph N/A   Clear
11:52 AM 48.9 °F - 33.1 °F 54% 30.25 in 10.0 mi NNW 16.1 mph - N/A   Clear
12:52 PM 50.0 °F - 32.0 °F 50% 30.24 in 10.0 mi North 17.3 mph 23.0 mph N/A   Clear
1:52 PM 48.9 °F - 28.0 °F 44% 30.24 in 10.0 mi North 15.0 mph 21.9 mph N/A   Clear
2:52 PM 52.0 °F - 25.0 °F 35% 30.23 in 10.0 mi North 16.1 mph - N/A   Clear
3:52 PM 48.9 °F - 23.0 °F 36% 30.25 in 10.0 mi North 11.5 mph - N/A   Clear
4:52 PM 48.0 °F - 19.9 °F 33% 30.25 in 10.0 mi North 9.2 mph - N/A   Clear
5:52 PM 41.0 °F 36.4 °F 21.9 °F 47% 30.27 in 10.0 mi North 6.9 mph - N/A   Clear
6:52 PM 39.0 °F 34.0 °F 21.0 °F 49% 30.28 in 10.0 mi NNW 6.9 mph - N/A   Clear
7:52 PM 37.0 °F 33.3 °F 19.9 °F 50% 30.28 in 10.0 mi NW 4.6 mph - N/A   Clear
8:52 PM 36.0 °F 32.1 °F 19.9 °F 52% 30.27 in 10.0 mi NW 4.6 mph - N/A   Clear
9:52 PM 35.1 °F 31.0 °F 19.9 °F 54% 30.27 in 10.0 mi NW 4.6 mph - N/A   Clear
10:52 PM 33.1 °F 27.7 °F 21.0 °F 61% 30.26 in 10.0 mi NW 5.8 mph - N/A   Clear
11:52 PM 33.1 °F 30.0 °F 21.0 °F 61% 30.27 in 10.0 mi NW 3.5 mph - N/A   Clear